Flag for U.S.A. Weather past 2 weeks in New Orleans, Louisiana, U.S.A.

Now
36 °F

Clear.


Feels Like: 24 °F
Forecast: 34 / 54 °F
Wind: 25 mph from North

Location: Lakefront Airport

Current Time: Mar 6, 2015 at 2:08:08 AM

Latest Report: Mar 6, 2015 at 12:53 AM


Visibility: 10 mi

Pressure: 30.43 "Hg

Humidity: 67%

Dew point: 26 °F

Location of New OrleansLocation

Historic Weather in New Orleans — Graph

°F

New Orleans temperature yesterday

Maximum temperature yesterday: 73 °F (at 12:53 AM)
Minimum temperature yesterday: 37 °F (at 11:53 PM)
Average temperature yesterday: 49 °F

Past Weeks' High & Low Weather Summary

 TemperatureHumidityPressure
High84 °F (Mar 4, 1:53 PM)93% (Mar 1, 9:53 PM)30.48 "Hg (Mar 1, 9:53 PM)
Low36 °F (Mar 6, 12:53 AM)24% (Feb 19, 2:53 PM)29.66 "Hg (Feb 25, 1:53 PM)
Average56 °F72%30.16 "Hg
* Reported Feb 19 12:53 AM — Mar 6 12:53 AM, New Orleans, Weather by CustomWeather, © 2015

Note: Actual official high and low records may vary slightly from our data, if they occured in-between our weather recording intervals... More about our weather records

Advertising

New Orleans weather history for previous 24 hours

 ConditionsComfort  
Time TempWeatherWind HumidityBarometerVisibility
12:53 AM
Fri, Mar 6
36 °FClear.25 mph67%30.43 "Hg10 mi
11:53 PM
Thu, Mar 5
37 °FClear.26 mph62%30.43 "Hg10 mi
10:53 PM38 °FClear.29 mph60%30.45 "Hg10 mi
9:53 PM38 °FClear.30 mph63%30.44 "Hg10 mi
8:53 PM40 °FPassing clouds.25 mph55%30.43 "Hg10 mi
7:53 PM41 °FOvercast.24 mph62%30.41 "Hg10 mi
7:01 PM41 °FMostly cloudy.25 mph67%30.39 "Hg10 mi
5:53 PM41 °FMore clouds than sun.28 mph70%30.33 "Hg10 mi
4:53 PM41 °FMostly cloudy.25 mph76%30.31 "Hg10 mi
3:53 PM42 °FOvercast.31 mph73%30.27 "Hg10 mi
2:53 PM42 °FMostly cloudy.30 mph73%30.24 "Hg10 mi
1:53 PM43 °FOvercast.31 mph76%30.24 "Hg10 mi
12:53 PM45 °FOvercast.26 mph76%30.23 "Hg10 mi
11:53 AM45 °FOvercast.24 mph80%30.25 "Hg10 mi
10:53 AM45 °FLight rain. Overcast.29 mph82%30.23 "Hg10 mi
9:53 AM45 °FRain. Mostly cloudy.21 mph82%30.20 "Hg2 mi
8:53 AM46 °FOvercast.23 mph77%30.16 "Hg10 mi
7:53 AM46 °FOvercast.30 mph79%30.16 "Hg10 mi
6:53 AM49 °FFog.32 mph86%30.09 "Hg6 mi
5:53 AM56 °FLow clouds.31 mph84%29.97 "Hg10 mi
4:53 AM71 °FPassing clouds.14 mph87%29.91 "Hg8 mi
3:53 AM72 °FClear.15 mph84%29.89 "Hg9 mi
2:53 AM73 °FClear.16 mph81%29.89 "Hg9 mi
2:01 AM73 °FPassing clouds.16 mph84%29.93 "Hg8 mi
Weather by CustomWeather, © 2015

See weather overviewHow to use our weather pages